Wind_Speed
24 24 24 24 25 25 26 26 26 26 27 26 25 23 23 22 22 22 22 23 24 23 24 24 25 25 25 24 24 24 25 25 25 26 25 25 24 24 24 25 25 25 25 26
25 25 25 25 25 25 26 26 27 28 28 27 26 24 23 23 23 22 23 24 24 24 25 25 25 26 26 25 25 25 25 26 26 27 27 26 25 25 25 25 25 26 26 26
25 25 26 26 26 26 26 27 28 28 28 28 26 25 24 24 24 23 24 25 25 26 26 25 25 25 25 25 25 26 26 27 27 27 27 27 27 26 26 26 27 27 27 27
25 26 27 26 26 26 27 27 28 28 28 27 27 25 24 24 24 24 24 25 25 25 26 26 25 25 25 26 26 26 27 27 28 28 28 27 27 26 27 27 27 27 27 27
26 26 26 26 26 26 26 27 27 27 27 27 26 25 25 25 25 24 24 24 25 25 25 25 26 25 26 26 27 27 27 27 27 27 27 27 27 26 26 26 26 27 27 28
26 26 25 27 25 25 25 26 26 26 26 26 25 25 25 25 25 25 24 24 24 25 24 24 24 24 24 25 26 27 27 27 26 26 26 26 26 27 27 28 27 27 28 28
25 26 25 27 25 24 25 25 25 25 25 26 26 25 25 25 25 25 25 24 23 23 24 24 24 24 24 24 25 25 26 26 26 26 26 26 26 27 27 27 27 27 27 27
25 25 25 26 24 25 26 25 25 25 25 25 25 25 24 24 24 24 24 24 24 24 24 24 24 25 25 25 25 25 25 25 26 26 26 26 26 26 27 27 27 27 26 25
25 25 26 25 25 25 25 25 25 24 24 25 25 25 25 24 24 24 23 23 23 23 24 25 25 25 24 24 25 25 25 25 25 26 26 26 27 27 26 26 26 25 25 24
24 25 25 25 24 25 25 25 25 25 25 25 25 25 25 25 25 24 23 23 24 24 24 24 25 25 25 25 25 25 25 25 25 25 25 25 25 25 25 25 25 24 24 23
24 25 25 24 25 25 25 25 25 25 25 25 25 25 25 25 25 25 24 24 24 25 25 25 26 25 25 25 25 25 24 25 25 25 24 24 24 24 24 24 25 24 24 24
24 24 24 24 24 24 24 25 25 25 25 26 26 26 25 25 25 25 25 25 25 26 26 26 26 25 25 24 23 23 24 24 25 26 25 25 25 25 25 24 25 25 25 24
24 24 24 23 24 24 24 24 24 24 24 25 25 25 25 25 26 26 25 25 25 26 25 25 25 25 24 24 23 23 24 25 25 25 25 24 24 24 24 24 24 24 24 24
24 23 23 23 23 24 24 24 24 23 23 23 24 24 25 25 26 26 26 26 26 25 25 24 23 24 24 24 25 25 24 25 25 25 25 25 24 24 24 24 24 24 24 24
23 23 23 23 23 23 24 24 24 23 23 23 23 23 24 24 25 25 26 26 26 25 24 24 24 24 24 24 24 25 25 24 24 24 24 24 24 23 24 24 23 23 23 23
22 22 22 23 23 23 24 24 24 23 23 23 23 23 23 24 24 24 24 25 25 25 25 24 24 24 24 24 24 24 24 24 24 24 24 24 23 23 23 23 22 22 22 23
21 21 21 22 22 22 23 24 23 23 23 24 24 24 24 24 24 24 24 24 24 24 24 25 25 25 25 25 24 24 23 24 23 23 23 23 23 22 22 23 22 22 22 22
21 21 21 21 21 22 22 22 22 22 23 23 24 24 24 24 24 24 24 24 23 23 24 25 25 26 25 25 24 24 24 24 24 24 24 23 23 23 23 23 23 23 23 22
20 20 20 20 21 22 22 22 22 22 23 23 24 24 24 24 24 23 22 22 22 23 23 23 24 25 25 25 25 24 24 24 24 24 24 24 23 23 23 23 23 23 23 23
18 19 20 20 20 21 21 22 22 22 22 22 22 22 23 23 23 23 23 23 23 23 23 22 23 24 24 25 25 24 23 23 23 23 24 24 24 24 23 22 22 23 22 23
17 17 17 18 18 19 20 20 20 21 21 21 21 22 22 23 23 23 23 23 23 23 23 22 22 22 22 23 23 23 23 23 23 23 23 24 24 23 23 22 22 23 23 23
17 17 17 17 17 18 19 19 19 20 20 21 21 21 22 23 23 23 23 23 23 23 22 22 22 21 21 21 21 22 22 22 23 23 22 22 22 23 23 23 22 22 23 23
16 17 17 17 17 17 17 17 17 18 18 19 19 19 20 21 21 22 21 21 22 22 21 21 20 20 20 20 20 21 21 22 22 21 20 21 21 21 21 21 21 21 21 21
16 16 16 16 17 16 16 16 17 17 17 17 17 18 18 19 19 20 20 20 20 20 19 19 18 18 18 19 20 20 20 21 20 20 19 20 20 20 20 20 20 20 20 20
16 16 16 16 16 16 16 16 16 16 16 16 16 16 17 17 18 18 19 19 18 18 18 18 18 19 18 18 18 18 18 18 18 19 19 19 19 19 19 20 20 20 20 20
16 16 16 16 16 16 16 16 16 16 16 16 16 16 16 16 16 17 18 18 18 17 18 18 18 18 17 17 17 16 16 16 17 18 19 19 19 19 19 19 20 20 21 22
16 16 16 16 16 16 16 16 16 16 16 16 16 16 17 17 17 17 17 17 17 17 17 17 17 17 17 17 17 16 16 17 17 17 18 18 19 19 20 20 20 21 22 23
Wind_Direction
246 247 250 251 250 251 251 252 255 257 259 262 264 265 265 262 260 258 257 258 259 258 258 257 260 262 263 264 266 266 265 266 267 269 269 271 273 273 273 274 274 274 275 274
249 250 251 252 251 251 251 252 255 257 258 261 264 265 263 260 258 259 258 258 257 258 259 260 261 263 264 265 266 266 266 268 268 269 269 270 272 273 272 273 274 275 275 274
251 251 252 254 253 253 254 254 255 257 259 261 262 262 261 259 258 259 259 258 258 259 260 261 263 264 264 264 266 267 268 269 269 270 271 270 271 272 272 272 274 275 274 275
252 252 254 256 255 254 254 255 256 256 259 261 262 261 261 259 259 259 258 257 258 259 260 261 263 264 265 265 267 268 268 268 267 268 269 270 271 271 272 272 272 273 275 276
252 254 256 256 256 256 256 256 256 256 258 260 261 261 259 258 258 260 260 258 258 260 260 261 263 265 265 267 269 268 268 269 269 268 269 270 270 271 272 272 273 274 275 276
252 253 255 257 257 257 257 257 256 257 258 258 260 260 258 258 258 260 262 259 258 257 259 261 265 266 267 268 270 268 266 267 267 268 269 269 270 271 272 273 274 276 277 277
252 253 254 255 255 256 256 256 256 257 258 259 258 258 258 257 258 260 262 260 257 257 260 263 264 265 267 269 270 268 266 265 266 269 269 269 269 271 273 275 276 277 277 277
254 252 253 253 254 254 255 257 258 259 258 258 257 257 256 256 256 257 258 259 260 260 260 262 264 265 268 268 268 268 267 266 267 267 268 269 271 272 272 274 276 276 277 276
252 251 252 253 255 255 255 255 255 257 258 257 257 256 257 257 257 256 257 259 261 262 261 262 264 265 267 267 266 267 267 266 265 266 269 271 271 272 272 274 276 277 277 276
253 253 253 254 255 256 257 256 255 256 256 257 257 257 258 259 257 259 258 259 261 263 263 262 263 265 266 268 267 265 266 265 265 266 270 272 272 273 275 275 276 276 275 276
253 254 254 254 255 256 256 256 257 257 257 257 257 258 259 258 257 258 260 262 264 265 266 265 263 263 265 268 267 264 264 263 263 266 269 271 273 274 275 275 277 275 274 274
253 253 253 253 254 255 255 256 256 256 256 255 256 257 258 258 258 258 260 262 264 265 266 266 264 262 262 265 265 264 262 261 263 265 268 270 271 273 274 276 275 273 275 273
255 254 255 256 256 255 255 256 256 257 256 254 256 257 257 257 257 257 259 261 263 265 265 266 264 262 261 261 264 265 264 264 267 269 270 271 271 272 273 275 276 273 271 269
254 255 256 257 256 255 256 257 259 259 256 255 256 258 258 258 258 258 259 260 262 264 264 263 263 263 262 262 263 264 265 266 268 270 272 272 274 273 274 275 276 273 270 269
254 253 255 256 255 256 257 259 260 260 257 256 258 259 259 260 261 261 261 260 261 262 262 261 262 262 263 263 262 262 264 265 267 269 269 270 274 274 274 274 275 273 270 268
253 254 255 255 256 258 259 260 261 259 257 257 258 258 259 261 262 263 263 262 261 261 262 262 262 263 263 263 262 262 263 265 266 267 268 269 271 273 274 274 274 271 269 268
253 255 256 256 257 258 258 261 261 260 259 258 258 258 259 261 262 263 264 263 262 262 261 261 261 261 262 263 262 262 263 265 266 267 268 270 271 272 274 274 272 271 270 269
254 255 256 256 256 257 257 259 261 260 259 260 260 259 260 260 261 262 262 262 262 262 262 262 262 261 261 262 262 263 264 264 265 267 269 270 271 273 274 274 272 271 271 269
255 257 257 258 259 260 259 259 260 261 260 260 259 259 258 259 259 259 259 260 262 263 264 265 264 263 262 260 261 263 264 265 265 266 267 269 270 273 273 272 272 272 270 269
256 257 259 260 261 261 260 259 261 261 260 261 260 260 260 259 259 259 259 261 261 262 263 264 264 263 261 259 260 260 262 263 264 264 265 268 271 272 271 271 272 272 270 268
259 259 260 261 262 263 263 261 261 261 262 262 261 261 260 260 260 260 260 261 261 261 261 261 262 263 261 260 259 258 258 261 262 264 265 267 268 269 270 270 271 271 269 269
261 261 262 264 263 262 262 262 262 262 262 262 261 260 261 262 262 262 262 260 259 259 259 260 260 260 259 259 258 258 258 259 262 262 264 265 265 266 266 268 270 270 271 271
263 263 264 265 266 265 265 264 264 264 263 263 262 261 261 262 261 260 259 258 257 257 259 259 261 262 261 260 259 258 259 261 262 261 264 264 264 265 267 268 269 271 272 272
265 264 264 265 266 266 265 265 266 268 268 268 266 266 266 264 262 260 258 257 257 256 257 258 259 261 260 260 260 259 262 263 263 264 266 266 266 267 269 269 270 270 271 272
263 262 263 266 266 265 264 265 266 268 271 272 270 269 267 266 264 261 259 259 256 256 257 258 260 261 260 259 260 260 262 263 265 268 271 269 267 267 269 269 269 267 267 270
262 261 260 262 264 264 265 266 267 269 271 272 271 268 268 268 266 263 262 260 258 257 258 259 259 260 259 258 259 263 264 266 268 269 269 268 267 269 269 270 270 268 269 270
262 260 259 260 263 263 264 264 267 269 270 270 270 269 269 267 266 264 264 261 259 257 259 261 261 260 260 261 263 265 267 269 271 271 271 270 270 272 273 273 272 273 273 273
Height
5782 5783 5784 5786 5788 5789 5791 5792 5794 5795 5795 5796 5796 5797 5797 5797 5798 5799 5800 5800 5801 5801 5802 5803 5803 5804 5804 5804 5804 5804 5805 5805 5805 5805 5805 5805 5805 5804 5804 5803 5802 5802 5801 5801
5775 5776 5778 5779 5781 5782 5783 5785 5786 5786 5788 5788 5789 5790 5790 5791 5792 5792 5793 5793 5794 5795 5795 5796 5796 5797 5797 5797 5797 5798 5798 5798 5798 5797 5797 5797 5797 5797 5796 5796 5795 5794 5794 5793
5768 5769 5770 5772 5774 5775 5776 5777 5778 5779 5781 5781 5782 5783 5784 5784 5785 5786 5786 5787 5787 5788 5788 5788 5789 5789 5790 5790 5790 5790 5790 5790 5790 5790 5790 5790 5790 5789 5788 5788 5787 5787 5786 5786
5761 5762 5764 5767 5766 5767 5768 5769 5770 5771 5772 5774 5775 5776 5777 5777 5778 5779 5779 5780 5780 5780 5781 5781 5782 5782 5782 5783 5783 5783 5783 5783 5782 5782 5782 5782 5782 5781 5781 5780 5779 5779 5779 5778
5753 5754 5756 5758 5758 5760 5761 5761 5762 5763 5764 5766 5767 5768 5769 5770 5771 5771 5772 5772 5773 5773 5774 5774 5774 5775 5775 5775 5775 5775 5775 5775 5774 5774 5774 5774 5774 5774 5773 5772 5772 5771 5771 5770
5746 5747 5749 5751 5751 5751 5754 5754 5755 5756 5757 5758 5759 5761 5762 5762 5763 5764 5764 5765 5765 5766 5766 5767 5767 5767 5767 5767 5767 5766 5766 5766 5767 5767 5766 5766 5766 5766 5765 5764 5764 5763 5763 5761
5738 5740 5741 5742 5743 5745 5747 5748 5748 5748 5749 5750 5752 5753 5754 5755 5755 5756 5757 5757 5758 5759 5759 5760 5760 5760 5760 5759 5759 5758 5758 5759 5759 5759 5759 5759 5758 5758 5757 5757 5756 5755 5754 5753
5731 5733 5736 5734 5736 5738 5739 5739 5740 5741 5742 5743 5744 5745 5746 5747 5748 5749 5750 5750 5751 5751 5752 5753 5753 5753 5753 5752 5751 5751 5751 5751 5752 5752 5751 5751 5750 5750 5749 5749 5748 5747 5746 5745
5725 5727 5726 5727 5728 5729 5730 5731 5732 5733 5734 5735 5736 5738 5739 5740 5740 5741 5742 5743 5743 5744 5745 5745 5745 5745 5745 5745 5745 5744 5744 5744 5744 5744 5744 5743 5743 5742 5742 5741 5740 5739 5738 5737
5716 5718 5719 5720 5721 5721 5722 5723 5724 5725 5726 5728 5729 5730 5731 5732 5733 5734 5735 5736 5736 5737 5737 5737 5737 5738 5738 5738 5737 5737 5737 5737 5737 5737 5737 5736 5735 5735 5734 5733 5732 5731 5730 5730
5709 5710 5711 5712 5713 5714 5715 5715 5716 5717 5719 5720 5721 5722 5723 5724 5725 5726 5727 5728 5729 5729 5729 5730 5730 5730 5730 5730 5730 5730 5730 5730 5730 5730 5729 5729 5728 5728 5727 5726 5725 5723 5723 5722
5702 5703 5704 5705 5706 5706 5707 5708 5709 5710 5711 5712 5713 5714 5715 5716 5717 5719 5720 5720 5721 5721 5722 5722 5722 5722 5723 5723 5723 5723 5723 5723 5723 5722 5722 5721 5721 5720 5719 5719 5717 5716 5716 5715
5694 5695 5696 5697 5698 5699 5700 5701 5701 5702 5703 5704 5705 5706 5707 5708 5709 5711 5712 5712 5713 5713 5714 5714 5714 5714 5715 5715 5716 5716 5715 5715 5715 5715 5714 5714 5713 5713 5712 5711 5710 5709 5708 5708
5686 5688 5689 5690 5691 5691 5692 5693 5694 5695 5695 5697 5697 5698 5699 5700 5701 5703 5704 5704 5705 5705 5705 5706 5706 5707 5707 5707 5708 5708 5708 5708 5708 5707 5707 5706 5706 5705 5705 5704 5703 5702 5701 5701
5679 5680 5682 5682 5683 5684 5685 5686 5687 5687 5688 5689 5690 5691 5692 5693 5693 5694 5695 5696 5696 5697 5697 5698 5698 5699 5699 5699 5700 5700 5700 5701 5700 5700 5700 5699 5699 5698 5697 5696 5696 5695 5694 5694
5672 5673 5674 5675 5676 5677 5678 5678 5679 5680 5681 5682 5683 5684 5684 5685 5685 5686 5687 5687 5688 5688 5689 5690 5690 5690 5691 5691 5692 5692 5693 5693 5693 5693 5692 5692 5691 5691 5690 5689 5688 5688 5688 5687
5665 5666 5667 5668 5669 5669 5670 5671 5672 5673 5674 5674 5675 5676 5677 5677 5678 5678 5679 5679 5680 5680 5681 5681 5682 5682 5683 5683 5684 5684 5685 5685 5685 5685 5685 5685 5684 5684 5683 5682 5681 5681 5681 5680
5658 5659 5660 5661 5662 5662 5663 5664 5664 5665 5666 5667 5667 5668 5669 5669 5670 5671 5671 5671 5672 5672 5672 5673 5673 5674 5674 5675 5676 5676 5677 5677 5677 5678 5678 5677 5677 5677 5676 5675 5674 5674 5674 5674
5651 5652 5653 5654 5654 5655 5656 5657 5657 5658 5658 5659 5660 5660 5661 5661 5662 5663 5663 5663 5664 5664 5665 5665 5665 5665 5666 5667 5668 5668 5669 5669 5669 5670 5670 5670 5669 5669 5668 5668 5667 5666 5666 5666
5644 5645 5646 5647 5647 5648 5649 5649 5650 5651 5651 5652 5652 5652 5653 5653 5654 5654 5655 5655 5656 5656 5657 5657 5657 5657 5658 5658 5659 5660 5661 5661 5661 5662 5662 5662 5661 5661 5660 5660 5660 5659 5659 5659
5638 5639 5640 5640 5641 5641 5642 5642 5643 5644 5644 5644 5644 5645 5645 5646 5646 5646 5647 5647 5648 5648 5648 5649 5649 5649 5650 5650 5651 5652 5653 5653 5654 5654 5654 5654 5653 5653 5653 5653 5652 5652 5652 5651
5632 5633 5634 5634 5635 5635 5635 5636 5636 5637 5637 5637 5637 5637 5638 5638 5638 5639 5639 5639 5640 5640 5640 5641 5641 5642 5642 5643 5644 5644 5645 5645 5645 5645 5646 5645 5645 5645 5645 5645 5645 5645 5644 5644
5626 5627 5627 5628 5628 5629 5629 5629 5630 5630 5630 5630 5630 5630 5630 5631 5630 5631 5631 5632 5632 5632 5633 5633 5634 5634 5635 5636 5636 5637 5637 5637 5638 5637 5638 5638 5638 5637 5637 5637 5637 5637 5637 5637
5620 5621 5621 5622 5622 5622 5623 5623 5623 5624 5624 5624 5624 5623 5623 5623 5623 5623 5624 5624 5624 5625 5626 5627 5627 5628 5628 5629 5629 5630 5630 5630 5630 5630 5631 5631 5631 5631 5630 5630 5630 5630 5630 5630
5614 5615 5615 5616 5616 5617 5617 5617 5618 5618 5618 5618 5617 5617 5617 5616 5617 5617 5617 5617 5617 5618 5619 5620 5621 5621 5622 5622 5622 5623 5623 5623 5624 5624 5623 5623 5624 5624 5624 5623 5623 5623 5623 5623
5608 5609 5609 5610 5611 5611 5611 5612 5612 5612 5612 5611 5611 5611 5611 5610 5610 5611 5611 5611 5612 5612 5613 5614 5614 5615 5615 5616 5616 5616 5617 5617 5617 5617 5617 5617 5617 5617 5617 5617 5616 5616 5616 5616
5602 5603 5603 5604 5604 5605 5605 5605 5606 5606 5606 5606 5605 5605 5605 5605 5605 5605 5605 5605 5606 5606 5607 5608 5608 5609 5609 5610 5610 5611 5611 5611 5611 5611 5611 5611 5611 5611 5610 5610 5610 5609 5609 5609